Location: Central Falls
(41.8900°N, 71.3929°W)
Time: 11:56:58
(UTC+00:00)

A-11 Canister half - Pass Details

Date: 03 December 2023
Orbit: 1526 x 1682 km, 47.3° (Epoch: 20 February)

Event Time Altitude Azimuth Distance (km) Brightness Sun altitude
Rises 01:04:39 0° 244° (WSW) 4,925 12.3 -42.0°
Reaches altitude 10° 01:07:49 10° 245° (WSW) 3,939 11.6 -42.6°
Enters shadow 01:15:26 58° 250° (WSW) 1,911 9.4 -44.0°
Maximum altitude 01:18:01 87° 336° (NNW) 1,676 - -44.5°
Drops below altitude 10° 01:28:04 10° 66° (ENE) 3,883 - -46.3°
Sets 01:31:10 0° 67° (ENE) 4,853 - -46.9°
